Wind_Speed
59 60 60 61 61 62 63 65 66 67 68 69 69 70 72 73 74 74 74 74 74 74 74 73 73 72 72 73 73 73 74 75 76 77 78 78 78 78 78 78 78 78 78 78 78 77 76 74 73 73 71 69 66 63 61 60 59 58 57 57 57 56 55 54 53 55 57 59 59 60 62 62 62 61 60 60 60 60 61 64 67 70 72 74 75
61 61 62 63 63 64 64 65 66 67 68 68 68 69 69 70 70 70 70 70 70 70 70 70 71 71 72 72 72 73 74 75 76 77 77 78 77 78 78 78 79 79 79 79 78 78 76 75 74 73 71 68 65 63 61 60 59 58 57 56 56 55 54 54 54 54 56 58 59 60 62 62 63 64 63 63 63 62 62 63 66 70 72 74 76
61 61 62 63 64 65 65 66 66 67 67 67 67 67 68 68 68 68 68 68 68 69 69 70 70 71 71 72 73 74 75 76 76 76 77 77 77 78 78 79 80 80 80 79 79 78 76 75 74 72 70 67 65 64 62 61 60 60 59 58 57 57 56 55 55 55 56 58 60 61 62 63 64 64 65 65 65 65 65 64 65 68 72 75 77
61 62 62 63 63 63 64 65 65 66 66 66 66 66 67 67 67 67 67 67 68 69 69 70 70 71 72 72 73 74 75 75 75 76 76 77 78 78 79 80 80 80 80 79 78 77 76 75 74 72 70 67 66 65 64 63 62 61 60 60 59 59 59 58 58 58 58 59 61 62 63 65 66 66 66 66 67 67 68 67 66 67 71 75 78
62 63 62 62 62 62 62 63 63 64 64 65 65 65 65 66 65 66 66 67 68 68 69 69 70 71 72 72 73 73 74 74 75 75 76 77 78 79 80 80 81 80 79 78 77 76 75 75 74 72 70 68 67 66 65 64 63 62 61 61 61 60 60 60 60 61 61 61 63 64 65 66 67 67 67 67 68 69 69 70 70 69 70 74 78
59 60 59 59 59 59 60 61 61 62 62 63 63 64 64 64 64 65 65 66 67 68 68 69 70 71 71 71 72 72 73 74 75 76 77 78 78 79 80 81 81 80 79 78 76 75 74 74 73 72 70 68 67 66 66 65 64 63 62 62 62 61 61 61 61 62 62 63 64 65 66 67 68 68 68 68 68 69 70 71 72 72 72 72 76
55 56 56 56 56 57 58 59 59 60 61 61 62 62 63 63 63 64 65 66 66 67 68 68 69 69 70 70 71 72 73 74 75 76 77 77 78 79 80 81 82 81 80 78 76 75 74 73 72 71 70 68 68 67 66 66 65 65 64 64 63 63 63 62 62 62 63 64 64 65 66 67 68 69 70 69 68 69 70 71 72 74 74 74 75
54 55 55 54 54 55 56 56 57 58 59 60 61 61 61 62 62 63 64 65 65 66 67 67 68 68 69 70 71 72 73 74 75 75 76 77 78 79 81 82 83 82 81 78 76 74 73 72 71 71 71 70 69 68 67 67 67 67 67 66 65 65 64 63 63 63 63 63 64 65 66 67 68 69 70 70 69 69 70 70 72 74 75 75 76
53 54 54 53 53 54 54 55 56 57 59 60 60 60 60 61 61 62 63 64 64 65 65 66 67 68 69 70 71 72 72 73 74 75 76 77 79 80 81 83 83 82 80 78 76 75 73 72 71 71 72 72 71 70 69 68 68 68 67 67 65 64 63 62 61 60 60 61 62 63 64 65 67 68 70 71 71 71 71 71 71 73 75 76 77
52 52 52 52 53 54 54 55 56 57 58 59 60 60 60 60 60 61 62 63 63 64 65 66 67 68 69 70 71 71 72 72 73 75 76 78 79 81 82 83 83 82 80 78 76 75 74 72 72 72 72 72 71 71 71 70 69 68 66 64 63 62 60 59 58 57 57 58 59 60 61 62 64 66 67 69 71 72 73 73 72 72 75 76 77
51 52 52 52 53 54 54 55 56 58 59 60 60 60 60 60 60 61 62 63 63 64 65 66 67 68 69 69 70 70 71 72 73 75 77 78 80 82 83 84 83 81 80 79 77 74 73 72 72 72 72 71 71 71 71 70 69 67 65 64 62 60 58 56 55 55 54 55 56 56 57 58 61 63 64 66 68 70 72 74 74 74 74 75 76
52 52 53 54 55 55 56 57 58 59 59 60 61 61 60 60 60 61 62 63 63 64 65 66 67 68 68 68 68 69 70 72 73 75 77 79 81 83 83 83 82 81 80 79 76 74 73 73 73 72 71 71 71 71 70 69 68 67 65 64 62 59 57 54 52 51 51 52 52 53 52 54 56 59 61 63 65 68 69 70 72 74 75 75 75
55 56 56 58 58 58 58 59 59 60 60 61 61 61 61 61 61 61 62 63 64 65 65 66 67 66 66 66 67 68 70 72 73 75 78 80 82 83 83 83 82 81 79 77 75 73 73 73 73 72 71 71 70 70 69 68 68 66 64 62 60 58 56 54 51 49 48 48 48 48 48 48 51 55 58 60 62 64 66 66 68 70 73 75 75
59 59 60 61 61 60 60 60 60 60 60 60 61 61 60 61 61 62 62 63 64 65 65 65 65 65 65 66 67 69 70 72 74 76 78 81 82 82 83 82 81 80 79 76 74 73 73 72 72 72 71 70 69 69 68 67 65 64 62 60 58 56 55 54 52 49 47 45 43 43 43 43 46 49 53 56 58 60 62 63 64 64 67 72 74
60 60 61 60 60 59 59 59 59 59 59 59 60 60 60 61 61 62 63 63 64 64 63 63 63 64 65 66 67 69 71 73 75 77 79 80 81 82 82 82 81 80 77 74 73 73 72 72 72 71 70 69 68 67 66 64 62 60 59 58 57 55 54 53 51 47 46 45 42 40 40 39 40 42 46 49 51 55 58 60 62 61 61 66 71
59 59 59 58 57 57 57 57 57 57 58 58 59 59 60 61 62 62 62 62 62 62 62 62 63 64 65 66 68 69 72 74 76 77 79 80 81 82 82 81 80 78 75 73 73 72 72 72 71 70 69 68 67 65 63 60 59 58 58 57 55 54 54 54 51 48 46 46 43 41 40 39 39 39 39 41 43 46 51 55 59 60 59 61 65
56 56 56 56 55 55 55 55 56 56 57 58 59 59 60 61 61 61 61 60 60 60 61 62 63 64 65 67 69 71 73 75 76 77 78 79 81 81 81 80 79 76 73 72 73 73 72 72 71 69 69 67 65 62 60 58 57 56 56 55 54 54 55 56 55 51 49 47 44 42 40 38 38 38 37 36 37 38 43 48 54 56 58 59 61
55 55 56 55 54 54 55 55 55 56 57 58 58 59 59 59 59 59 59 59 59 60 61 62 64 65 67 68 70 72 73 75 76 78 79 80 81 81 81 80 77 74 72 72 72 72 72 72 70 69 67 65 62 59 57 56 55 54 54 53 53 53 54 55 55 53 51 48 44 41 39 37 35 35 34 34 34 35 38 43 47 50 53 57 58
54 55 55 55 54 55 55 55 56 56 56 57 57 57 58 58 58 58 58 59 59 60 62 64 65 66 67 68 70 72 74 75 77 78 79 81 81 81 80 78 75 73 72 72 72 72 72 71 70 68 65 62 59 57 56 55 53 52 52 51 51 52 52 53 53 51 50 47 44 41 38 36 35 33 31 31 31 32 35 39 42 44 47 52 55
55 55 55 55 54 54 55 55 55 55 55 56 56 56 57 57 57 58 58 59 60 61 63 64 65 65 66 68 70 72 74 76 77 79 80 81 81 81 79 76 73 72 72 72 72 73 72 70 69 67 63 60 57 56 55 53 52 51 50 50 50 50 51 51 50 49 47 45 42 40 38 36 35 33 30 28 28 29 31 34 37 39 42 46 49
55 55 54 54 54 54 54 54 54 55 55 55 56 56 57 57 57 58 59 59 60 62 63 63 64 65 66 68 70 72 74 76 78 79 81 81 81 80 78 74 72 72 72 72 72 72 71 70 68 65 61 58 57 56 54 52 50 50 50 49 49 49 49 49 48 45 43 42 40 38 37 36 35 34 31 29 27 26 27 29 32 35 38 41 42
54 54 53 53 53 53 54 54 54 55 55 55 56 56 57 57 57 58 59 60 61 61 62 63 64 65 67 69 71 73 75 77 78 79 81 81 80 78 75 72 71 71 71 72 72 71 70 69 66 62 59 57 56 55 53 51 49 49 50 50 49 49 48 48 46 44 41 39 37 36 35 35 34 33 32 30 28 26 25 25 26 29 33 36 38
52 52 52 53 53 53 53 53 54 54 55 55 55 56 56 57 57 58 59 60 61 62 62 63 65 66 67 69 71 73 75 77 78 79 80 79 78 75 72 70 70 70 71 71 71 70 69 67 63 60 58 57 55 53 51 49 48 49 49 50 49 48 48 48 47 44 41 39 36 34 33 33 32 31 31 30 28 26 24 22 22 24 28 30 33
51 52 52 52 52 52 52 53 54 54 54 55 55 56 57 57 58 59 60 60 61 62 63 64 65 67 68 69 71 73 75 77 78 79 78 78 75 72 70 69 69 69 70 70 69 68 66 63 60 58 57 56 53 51 49 48 47 47 48 48 48 47 47 47 47 45 42 39 36 34 32 31 30 30 30 29 28 26 24 22 20 21 23 25 28
51 52 52 53 52 52 53 53 54 55 55 56 57 57 58 59 59 60 60 61 62 63 64 65 66 67 68 70 72 74 75 77 78 77 77 75 72 69 68 68 68 69 69 68 67 66 64 60 58 57 56 54 52 50 49 48 46 46 46 47 47 47 46 47 47 45 42 39 36 34 32 31 29 28 28 27 27 26 23 21 19 19 20 22 23
52 53 53 53 53 53 54 55 55 56 56 57 58 59 59 60 60 61 62 62 63 64 65 65 66 67 68 70 72 74 76 76 76 76 74 72 69 67 67 67 68 69 68 67 66 64 61 58 57 56 54 53 51 49 48 47 45 45 45 46 47 47 45 45 44 43 41 38 36 34 32 30 28 27 26 25 24 24 22 20 18 17 17 19 20
51 53 53 53 53 53 55 55 56 57 58 58 59 60 61 61 62 62 63 63 64 64 65 65 65 66 68 70 72 74 75 75 75 73 71 68 66 66 66 66 67 68 67 66 64 62 59 57 56 56 54 52 50 49 47 46 46 45 45 46 47 47 46 44 43 41 38 37 35 33 31 29 27 25 24 23 21 20 19 18 17 15 15 15 16
52 53 52 52 53 54 55 55 56 57 58 59 60 61 61 62 62 63 63 63 64 64 64 64 65 67 68 70 72 74 74 73 72 70 68 65 64 64 65 66 67 67 67 66 63 60 58 57 56 55 53 52 50 49 48 47 46 45 45 46 47 47 47 46 45 43 40 37 36 33 31 29 27 25 23 21 19 17 16 15 14 13 12 12 13
54 54 54 54 55 56 56 56 57 58 58 59 61 62 62 62 62 62 62 62 62 62 63 64 65 67 68 70 72 72 72 71 69 66 64 63 63 64 64 65 66 66 67 66 63 59 57 57 56 54 52 51 50 49 49 48 47 46 46 46 46 46 47 46 45 43 40 37 36 34 32 29 27 25 23 20 17 15 14 12 11 11 9 9 9
56 56 56 56 57 58 58 58 59 59 60 61 62 63 63 63 62 61 61 61 61 62 62 64 65 67 68 70 71 70 69 68 65 63 62 63 63 63 64 64 65 65 66 65 62 59 57 56 54 52 50 49 49 48 48 48 47 46 46 46 45 45 45 45 45 44 41 38 34 32 31 29 27 25 23 20 17 14 12 11 10 8 7 6 7
57 57 57 58 59 59 59 59 60 61 62 63 63 63 62 61 60 59 59 60 60 61 62 64 65 67 68 69 69 68 66 64 61 61 61 62 62 62 63 64 64 64 65 64 60 57 56 54 52 50 49 48 47 47 46 46 46 46 46 45 45 44 44 44 43 43 41 38 34 31 29 28 26 24 22 19 17 14 11 10 9 7 5 4 6
58 58 58 59 59 59 60 60 61 61 62 62 62 61 60 59 59 59 59 59 60 61 62 64 65 66 67 67 66 64 62 59 59 60 61 62 62 62 63 63 63 63 64 63 59 56 55 53 51 49 48 47 46 45 45 45 45 45 45 45 44 43 43 42 41 40 38 37 35 32 29 27 25 24 21 19 16 13 11 9 8 7 4 4 6
58 59 59 60 60 59 59 60 60 60 60 60 59 59 58 58 58 59 59 60 60 61 62 64 64 65 65 64 63 60 58 57 58 59 60 61 61 62 63 63 63 63 63 61 57 55 53 51 49 48 47 46 45 44 45 45 45 44 44 44 43 42 42 41 40 38 37 35 34 32 30 27 25 23 21 18 16 13 10 8 7 7 4 3 6
60 60 60 60 60 59 59 59 59 57 57 57 58 58 58 58 58 59 59 59 60 61 62 63 63 62 62 60 59 57 56 56 58 59 60 60 60 62 63 63 63 63 62 58 55 54 52 50 48 47 45 44 44 44 44 44 45 44 44 44 43 42 41 40 40 39 37 35 33 31 30 27 25 22 20 18 15 13 10 7 5 6 4 2 5
61 60 60 60 60 60 59 58 57 55 55 57 58 58 58 58 58 58 58 59 60 61 61 61 60 60 59 57 56 55 55 57 58 59 59 59 60 62 63 63 63 63 60 57 54 52 50 48 46 45 44 43 43 43 43 43 44 44 44 43 43 42 41 40 39 38 37 35 32 30 28 27 24 22 20 18 15 12 10 7 4 4 3 1 4
61 61 61 61 60 59 58 58 57 56 56 57 58 57 56 57 57 57 58 59 60 60 60 59 59 58 56 55 55 55 55 57 59 59 59 59 60 62 63 64 64 62 59 55 52 50 47 46 45 43 43 42 41 41 42 42 43 43 43 42 42 41 40 39 39 37 36 34 32 29 27 26 24 22 20 18 16 13 10 8 4 2 3 1 4
62 61 61 60 59 58 57 56 55 55 55 55 55 55 55 56 56 57 58 58 58 58 58 58 56 55 53 53 54 55 56 57 58 58 58 59 61 63 64 65 65 62 58 54 51 48 45 44 43 42 41 41 41 40 41 41 42 43 43 42 41 40 39 37 37 36 35 34 32 29 27 25 24 22 19 18 16 13 10 8 5 1 2 3 4
61 61 61 59 57 55 53 51 51 51 52 52 52 53 54 55 55 56 56 57 57 57 56 55 53 52 52 53 55 55 56 57 57 57 58 60 62 63 64 65 65 61 56 52 50 47 45 43 42 41 40 40 40 40 40 41 41 42 42 42 41 40 38 37 36 36 35 34 32 30 27 25 23 22 19 17 15 14 11 8 6 4 3 5 6
59 59 58 55 53 50 48 47 47 48 49 50 51 52 53 54 54 55 55 55 55 55 53 52 52 52 53 54 55 56 57 56 56 57 58 61 63 63 63 63 62 59 54 51 49 47 45 43 41 40 39 39 39 39 39 40 40 41 41 41 41 40 39 37 36 35 34 34 33 31 28 25 23 21 20 17 15 13 12 9 7 6 5 7 8
54 53 51 50 48 45 45 45 46 47 48 48 49 50 52 53 54 54 54 54 53 53 52 52 52 53 54 54 55 56 56 55 55 57 59 61 64 64 63 63 61 58 53 50 48 45 44 43 41 39 38 38 38 38 38 38 39 39 39 39 39 39 38 37 36 34 33 32 32 30 29 26 23 21 19 18 16 14 12 10 9 8 8 9 10
46 45 44 43 42 41 42 43 45 46 46 46 48 50 53 54 54 54 54 54 53 54 54 54 55 55 54 54 54 55 54 54 55 57 59 62 65 66 65 64 61 56 52 49 46 44 42 42 41 39 38 37 37 38 38 38 38 38 38 38 38 37 37 37 36 35 33 32 31 30 28 27 25 22 20 18 16 15 13 11 9 9 9 10 12
40 40 39 38 38 38 39 42 43 45 45 46 48 52 54 56 56 56 55 55 54 55 55 56 56 56 55 55 55 54 54 54 56 58 61 63 65 67 67 65 60 54 50 47 45 43 41 41 40 39 39 38 37 38 38 38 37 37 37 37 37 37 36 36 35 35 34 33 31 30 28 27 25 23 21 19 17 15 14 12 11 10 10 11 13
37 39 41 41 40 39 41 43 44 44 45 47 51 55 57 58 59 58 56 55 55 56 56 56 55 56 56 55 54 53 53 55 57 60 62 65 66 66 66 64 58 52 48 45 44 42 41 40 40 39 39 39 38 38 38 38 37 37 36 36 36 36 36 35 35 34 34 33 32 31 30 28 26 24 22 20 18 16 15 14 13 12 11 12 13
40 44 48 48 45 42 43 45 45 45 46 50 55 58 60 61 60 58 57 56 57 57 57 56 55 55 55 54 53 53 54 55 58 60 63 65 65 66 65 62 57 51 47 44 42 42 41 40 40 39 39 39 39 39 38 37 37 37 36 36 35 35 36 35 35 34 34 33 33 32 31 30 28 26 23 21 19 17 15 14 14 13 13 13 14
46 49 51 50 48 46 45 47 49 50 52 56 60 62 63 62 60 58 57 57 58 58 57 56 54 54 53 53 53 54 55 57 59 61 64 65 65 65 64 60 54 50 46 42 40 41 41 40 40 39 39 39 39 39 38 38 37 37 36 36 35 35 35 35 35 35 34 33 32 32 31 31 30 29 27 24 22 20 17 16 14 14 14 14 15
50 51 51 50 50 49 49 51 53 56 58 61 63 63 62 61 59 58 58 58 59 59 57 55 54 53 52 53 54 56 58 59 61 63 65 65 65 64 62 57 52 50 47 43 40 40 41 42 41 40 39 39 39 39 38 38 37 36 36 35 35 35 35 35 35 35 35 34 32 31 31 31 30 30 29 27 25 23 21 19 17 15 15 15 15
51 52 53 52 52 52 54 55 56 58 60 62 62 62 61 60 59 59 59 60 60 59 57 55 54 53 53 54 56 57 59 61 63 65 65 65 65 64 60 54 50 49 48 46 43 41 41 42 43 43 42 41 40 39 38 37 37 36 36 35 34 35 35 35 35 35 35 35 33 32 31 30 30 29 29 29 27 26 24 22 20 18 17 16 16
51 52 53 54 54 55 56 57 58 59 60 61 61 61 61 60 60 60 60 60 59 58 56 55 54 54 55 56 58 59 61 63 65 66 66 66 65 63 58 52 48 47 48 47 46 45 43 41 41 42 43 43 42 41 39 38 36 36 36 35 35 35 35 35 35 35 35 35 34 33 32 31 30 29 29 29 28 28 26 25 24 22 20 19 18
49 50 52 53 54 56 57 58 59 60 61 61 61 61 60 60 61 60 60 59 57 56 55 55 55 56 57 58 60 61 63 65 66 67 66 66 64 60 55 50 48 46 46 46 47 47 47 45 42 41 41 41 41 41 41 39 37 36 35 35 36 36 36 36 36 35 34 34 34 33 33 32 31 30 29 29 29 28 28 27 26 25 24 23 22
47 48 50 51 53 54 55 56 57 59 59 59 59 59 59 59 59 59 58 56 55 55 55 56 56 58 59 60 62 63 65 66 66 66 65 64 60 55 51 49 47 46 45 45 46 47 49 48 47 45 43 41 39 39 40 40 39 38 36 36 36 37 37 38 38 36 35 34 34 34 34 33 32 32 31 30 29 29 28 28 27 27 26 26 25
47 47 48 49 50 51 52 53 54 56 57 57 57 57 57 57 56 56 55 55 56 56 56 57 58 60 61 62 64 66 67 67 66 66 65 62 57 52 49 48 47 46 45 44 44 45 47 49 49 48 48 46 43 41 39 39 39 39 39 38 37 37 38 38 39 39 38 36 35 35 35 35 34 34 33 32 31 31 30 29 28 28 27 27 27
Wind_Direction
270 270 270 270 271 272 273 274 275 276 276 277 277 278 279 280 282 284 286 288 291 293 295 297 299 300 302 303 304 304 305 305 305 306 306 306 307 308 309 309 309 309 309 308 308 307 307 307 306 306 306 305 304 302 300 298 297 295 294 291 287 284 281 279 275 273 271 269 268 266 266 266 265 262 259 257 253 248 242 238 236 235 234 233 232
271 271 271 271 272 273 274 275 277 278 279 280 281 283 284 286 287 289 291 293 295 296 297 299 300 301 302 303 303 303 304 304 304 305 305 306 307 308 309 309 308 308 308 308 308 308 308 307 307 307 307 306 304 303 301 299 298 297 295 292 289 286 282 279 276 273 271 269 268 266 264 263 263 262 260 258 256 252 247 240 236 234 234 233 233
272 272 273 274 274 275 276 277 278 280 281 283 284 286 287 289 290 292 294 295 296 297 298 299 300 301 301 301 302 302 302 303 304 305 306 307 308 308 308 308 308 308 308 309 309 308 308 308 308 308 308 307 306 304 303 302 300 298 296 293 290 287 284 281 278 275 271 269 268 266 265 263 261 260 259 257 256 254 251 245 238 234 233 233 233
271 273 274 275 276 276 277 278 280 281 282 284 285 287 288 290 291 292 294 295 295 296 297 298 299 299 300 300 301 301 302 303 304 305 306 307 308 308 308 308 308 309 309 310 309 309 309 309 309 309 309 308 307 306 304 302 300 298 296 293 291 288 286 283 280 277 274 271 269 266 264 263 262 260 259 257 255 253 252 249 244 237 232 231 232
272 273 274 275 276 277 278 279 281 282 283 284 285 287 288 289 290 292 293 293 294 295 296 297 298 298 299 300 300 301 302 304 305 306 307 307 308 308 309 309 310 310 310 311 311 310 310 311 311 310 310 308 307 306 304 302 300 297 295 292 290 288 285 283 280 278 275 272 270 268 265 264 262 261 259 257 255 253 251 249 247 242 236 231 230
273 274 274 275 276 277 278 280 281 282 283 284 285 286 287 288 290 291 292 293 294 295 296 297 297 298 299 300 301 302 304 305 306 307 307 308 309 309 310 310 311 311 312 312 313 312 312 312 311 310 309 308 307 305 304 302 300 297 295 293 290 288 286 283 281 278 276 273 270 268 266 265 263 262 260 258 256 254 251 249 247 245 241 235 230
274 274 275 275 277 278 279 280 281 282 283 284 285 286 287 289 290 291 292 293 294 295 296 297 298 299 300 301 302 304 305 306 307 307 308 309 309 310 311 312 312 313 314 314 314 313 312 311 311 310 309 308 307 306 304 303 301 299 297 295 292 290 288 285 283 280 277 274 272 269 267 265 264 263 261 260 257 255 253 251 248 246 243 240 235
274 275 275 276 278 278 279 281 282 283 284 285 285 286 288 289 291 292 293 293 294 295 296 298 299 300 301 302 304 305 306 307 307 308 309 310 311 312 312 313 314 314 315 314 314 313 312 312 311 310 310 309 308 307 305 304 302 300 299 297 295 292 290 288 285 283 280 277 274 272 269 266 264 262 261 260 259 257 254 252 250 248 245 242 238
276 276 277 278 278 279 280 281 282 283 284 285 286 287 289 290 291 292 293 294 295 296 297 299 300 301 302 303 304 305 306 307 308 309 310 311 311 312 313 314 314 315 315 315 315 315 314 313 312 312 311 310 309 308 306 304 302 301 299 298 296 295 293 290 288 285 283 280 277 274 271 268 266 263 261 260 258 257 255 253 250 249 247 244 241
277 278 279 280 280 280 281 282 282 283 284 285 287 288 289 291 292 293 294 295 296 297 298 300 301 302 303 304 305 306 306 307 308 309 310 311 312 313 314 315 315 316 316 316 316 315 314 314 313 312 311 310 309 308 307 305 304 302 301 299 298 297 295 293 291 288 285 282 279 276 273 270 268 265 262 260 258 256 254 253 251 249 247 246 244
278 279 280 281 281 282 283 284 284 284 285 287 288 289 290 292 293 293 294 295 297 298 299 300 301 302 303 304 305 306 307 307 309 309 310 311 313 314 315 316 316 317 317 317 316 315 314 313 312 311 311 310 310 309 308 307 306 305 304 303 301 299 297 295 293 290 287 284 280 277 275 272 270 268 265 262 260 257 254 252 251 249 247 246 245
280 280 281 281 282 284 285 285 285 286 287 288 289 290 291 292 293 294 295 296 298 299 300 300 301 302 303 304 305 306 307 307 309 310 311 312 313 315 316 316 317 317 318 317 316 315 314 313 312 312 312 312 311 311 310 310 309 308 307 306 304 303 300 298 295 292 289 286 283 280 277 274 272 269 266 264 261 259 255 252 250 249 248 246 244
280 281 281 282 284 285 286 286 286 287 288 288 289 291 292 293 294 295 296 297 298 299 299 300 301 302 303 304 305 305 306 307 309 310 311 312 314 315 316 317 317 318 318 317 316 315 314 313 313 314 314 313 313 313 312 312 311 310 309 308 307 306 304 301 298 295 291 288 286 283 279 275 271 269 266 264 262 260 258 255 251 248 247 247 244
280 281 282 283 284 285 285 285 286 287 288 289 290 291 292 293 294 295 296 297 298 298 299 300 301 302 303 303 304 305 306 308 309 310 311 313 315 316 317 317 318 318 318 317 316 315 314 314 315 315 315 315 315 314 314 313 313 312 311 310 309 308 307 304 302 300 297 294 291 287 282 276 271 268 266 264 263 262 261 259 255 251 247 246 245
281 282 283 283 284 284 285 285 286 287 288 289 290 291 292 293 294 295 295 296 297 298 299 300 301 302 302 303 304 305 307 308 309 310 312 314 315 317 317 318 318 318 317 316 315 315 315 315 316 316 316 316 316 315 315 315 315 314 313 313 312 311 309 307 305 305 304 302 299 295 290 284 277 271 267 264 262 261 261 260 258 255 249 245 244
282 283 283 284 284 285 285 286 286 287 288 289 290 291 292 292 293 294 295 296 297 299 299 300 301 301 302 304 305 306 307 308 309 311 313 315 316 317 318 318 318 318 317 316 316 315 316 316 317 317 317 317 317 317 317 317 317 316 315 315 315 314 314 312 310 311 311 309 307 303 299 294 288 281 274 269 264 260 259 258 257 256 253 247 243
282 283 283 284 285 286 286 286 286 287 287 288 289 290 291 291 293 294 295 297 298 299 300 300 301 302 303 304 305 306 307 308 310 312 314 316 317 317 318 318 318 318 317 317 316 316 317 318 318 319 319 319 319 319 319 319 319 319 318 318 318 319 318 316 315 316 314 312 309 306 302 298 293 288 283 277 270 264 259 256 254 254 254 251 246
282 283 284 285 285 286 286 286 286 286 287 288 289 290 291 292 293 295 297 298 299 300 300 300 302 302 303 304 305 307 308 309 311 313 315 317 318 318 319 319 319 318 317 317 317 318 318 319 320 320 320 321 321 321 321 321 321 321 320 321 321 321 319 317 317 317 316 314 312 309 305 300 295 289 285 280 274 268 262 258 254 252 251 252 251
282 283 284 285 286 286 286 286 286 287 288 288 289 290 292 294 295 297 298 299 299 300 300 301 302 303 304 305 306 307 309 310 312 315 316 318 318 318 319 319 318 318 318 317 318 319 320 320 321 321 322 322 322 323 323 323 323 323 322 322 322 321 320 318 318 318 317 316 315 313 310 306 301 295 289 283 277 270 265 262 259 255 251 250 251
282 283 284 285 286 286 286 287 287 288 289 289 291 292 294 296 297 298 298 299 299 299 300 301 302 304 305 306 307 308 309 311 313 315 317 318 318 319 319 319 319 318 318 319 320 321 321 321 322 323 323 324 324 324 324 325 325 324 324 323 323 322 321 319 319 319 319 318 317 317 314 310 306 302 297 290 283 275 268 264 261 259 255 251 248
282 283 284 285 285 286 286 287 288 289 290 291 293 294 295 296 297 297 297 298 298 299 300 302 303 304 305 306 307 309 310 312 314 316 317 318 318 319 319 319 319 319 319 320 321 322 322 323 323 324 325 325 326 326 326 326 327 326 326 325 324 324 323 321 321 321 321 320 320 319 317 313 310 307 304 298 291 283 274 267 262 260 257 254 248
281 282 283 284 285 286 287 288 289 289 290 292 293 294 295 295 296 296 297 298 298 300 301 302 303 304 305 307 308 309 310 312 314 316 317 318 318 319 319 319 319 319 320 321 322 323 323 324 324 325 326 327 327 327 327 328 329 328 328 327 326 326 326 325 324 324 324 324 324 322 318 315 313 310 307 304 299 292 282 273 266 262 258 256 251
281 282 283 284 284 286 287 288 288 289 290 292 293 293 294 295 295 296 297 298 299 300 301 302 303 304 305 307 308 309 310 312 314 316 317 317 318 319 318 319 319 320 321 322 323 324 324 325 325 326 327 328 328 328 328 330 331 330 329 328 328 329 330 329 328 328 328 328 327 325 321 318 317 314 310 307 304 300 293 283 273 266 261 257 253
281 282 283 283 284 286 287 288 288 289 291 292 292 293 294 294 295 295 296 297 298 299 300 301 303 304 305 306 307 308 310 312 314 315 316 317 318 318 318 319 320 320 321 323 324 324 325 326 327 327 327 328 328 329 330 331 332 331 330 329 330 332 334 333 331 330 331 330 330 328 325 323 322 319 315 312 309 305 300 293 285 275 267 260 254
282 282 283 284 285 286 287 288 288 290 291 292 292 293 293 293 294 294 295 296 297 298 300 301 303 304 305 306 307 308 310 312 314 315 317 317 318 318 318 320 321 321 322 323 324 325 326 327 327 327 327 328 329 331 331 332 333 332 332 332 333 335 337 337 334 333 333 332 332 330 329 327 326 321 316 313 311 307 303 297 289 281 273 265 257
282 282 283 284 285 287 287 288 289 290 290 291 291 291 291 292 292 293 294 295 296 297 299 301 302 303 304 305 306 308 310 312 314 315 317 317 317 318 319 321 321 321 322 323 325 326 327 327 327 328 329 330 330 331 332 332 333 334 335 335 336 337 339 339 336 334 333 333 333 333 331 330 327 321 316 314 312 310 307 302 295 286 277 269 259
281 282 283 285 286 286 286 287 288 288 289 289 289 290 290 291 291 292 293 294 295 297 298 300 301 302 303 304 306 308 310 312 314 315 316 316 317 319 321 321 321 322 323 324 326 328 328 328 329 329 330 330 330 331 332 334 335 337 338 338 338 338 338 339 338 336 335 335 334 334 334 332 329 324 321 320 317 314 311 308 304 295 284 272 261
281 282 283 285 285 285 285 286 287 287 288 288 288 289 289 290 291 292 293 294 295 296 298 299 301 302 303 304 306 308 310 312 314 315 315 316 318 320 321 321 322 323 325 326 328 329 329 330 330 330 330 331 331 332 334 335 337 338 339 340 340 339 339 340 341 340 339 339 337 336 336 336 333 329 327 324 321 316 313 312 309 302 290 274 258
281 282 283 284 284 284 285 286 286 286 287 287 288 288 289 290 291 292 293 294 295 296 297 299 300 301 302 304 306 308 310 313 314 315 315 317 319 321 321 322 323 325 326 328 329 330 331 331 331 331 331 331 332 333 334 335 337 338 340 340 341 341 341 341 342 341 340 340 339 337 337 338 336 332 330 329 327 322 319 319 317 308 292 270 249
281 282 282 282 282 283 284 285 285 286 286 287 288 289 289 290 291 292 293 293 295 296 297 298 299 301 303 305 307 309 312 313 314 315 316 318 320 321 322 323 325 327 328 329 330 331 331 331 330 330 331 331 332 332 333 335 336 338 339 340 341 341 341 342 343 342 341 340 340 338 338 339 338 335 333 334 334 331 328 330 329 318 295 259 231
280 281 281 281 282 283 284 284 285 286 287 288 288 288 289 290 291 292 292 293 294 295 297 298 299 301 303 305 308 310 312 313 314 316 318 319 320 321 322 324 326 328 329 330 330 330 330 330 330 330 331 331 331 332 333 334 335 336 338 339 341 342 342 342 343 343 341 339 339 340 340 340 340 338 336 337 339 336 334 341 345 333 300 244 210
280 280 281 281 282 282 283 284 285 286 287 288 288 288 289 290 291 291 292 293 294 295 296 297 299 302 304 306 309 311 312 313 315 317 318 319 321 322 323 325 327 330 331 330 330 330 330 330 330 330 330 330 331 332 332 333 335 336 337 338 340 341 342 342 343 343 342 340 340 341 342 342 342 340 337 338 341 341 341 351 360 351 316 236 196
279 280 280 281 281 282 283 284 285 287 287 287 287 288 289 289 290 291 292 293 293 294 296 298 300 303 305 307 309 311 312 314 317 318 318 319 321 322 324 326 328 331 331 330 329 329 330 330 329 329 329 330 331 332 332 333 334 335 337 338 339 340 341 341 342 344 345 344 342 341 341 343 344 343 340 339 342 345 346 356 12 8 339 250 194
279 279 280 280 281 282 282 283 284 285 285 285 285 287 288 288 289 290 291 291 293 294 296 299 301 304 306 308 310 311 314 316 317 318 318 320 321 323 325 327 329 331 331 329 329 329 330 329 328 328 328 329 331 331 332 332 333 335 336 337 339 340 341 342 343 345 346 346 344 342 341 342 344 344 343 341 341 344 346 353 18 28 7 284 203
278 279 279 280 280 281 281 282 282 282 281 282 283 285 286 287 287 288 289 291 293 295 297 300 303 306 307 309 310 312 315 316 317 317 319 320 322 324 326 327 329 331 330 329 329 329 328 327 327 327 328 329 330 331 331 332 333 334 336 337 338 339 341 343 344 345 346 347 345 343 342 342 343 344 344 342 340 341 344 348 9 49 43 323 214
277 278 278 278 279 279 280 280 280 279 279 280 281 283 284 285 286 287 289 291 293 296 299 302 305 307 308 309 311 314 315 316 316 317 319 321 323 325 327 328 329 330 330 328 328 327 326 326 326 327 328 329 329 330 331 331 332 333 334 336 337 339 340 343 344 345 345 346 347 346 344 343 343 344 344 342 340 338 338 340 347 56 89 127 219
276 276 276 277 278 279 279 279 278 278 278 278 280 281 282 283 285 287 289 292 295 298 302 304 306 307 308 310 312 313 315 315 316 317 319 322 324 326 327 328 329 329 328 327 326 326 326 326 327 327 327 328 329 329 330 331 332 333 334 335 336 338 339 341 343 344 346 347 347 348 347 345 343 343 343 342 339 334 332 330 325 316 148 165 204
273 274 275 276 276 277 276 276 275 275 275 276 278 279 281 283 285 288 291 295 298 300 302 304 306 308 309 310 311 313 314 314 315 317 320 323 324 326 327 328 328 328 327 326 325 326 327 327 326 326 326 327 328 329 330 330 331 332 333 334 335 336 338 340 343 345 346 347 347 348 348 347 344 342 341 341 338 333 328 321 308 281 215 188 193
271 273 274 274 275 275 274 274 273 273 274 276 278 280 283 285 288 291 294 297 299 301 303 306 307 308 309 310 311 312 313 314 316 318 321 323 324 325 326 327 327 326 326 326 326 326 326 325 325 326 326 326 327 328 329 330 330 331 333 333 334 335 337 340 342 344 346 347 347 348 348 347 345 342 340 339 337 332 326 317 302 278 245 213 200
270 271 271 272 273 273 272 272 272 274 276 279 282 285 288 289 290 292 295 298 301 303 305 307 307 307 307 309 310 310 311 313 315 318 321 322 323 324 325 327 327 326 325 325 325 324 324 324 324 325 325 325 326 327 328 329 330 331 332 332 333 334 336 338 340 342 345 347 348 347 347 347 346 343 340 337 335 332 325 315 300 281 259 236 217
266 266 267 268 270 271 272 274 275 277 280 284 287 288 289 290 291 293 296 299 302 304 306 306 306 306 306 308 308 309 310 313 316 319 321 322 323 324 325 326 326 325 324 323 323 323 323 323 323 323 324 324 325 326 327 328 329 330 330 331 332 334 335 336 338 340 342 345 347 348 348 347 346 345 342 337 334 330 324 315 301 283 264 250 236
262 263 263 265 267 270 272 274 276 277 279 282 285 286 287 288 290 293 296 299 301 303 305 305 305 305 306 307 308 309 312 315 318 319 321 322 323 323 324 324 324 323 322 321 321 321 321 321 321 321 322 323 324 325 326 327 328 329 329 330 331 333 334 335 337 338 340 342 344 346 348 348 347 344 342 338 334 329 324 317 305 288 269 255 246
259 262 262 262 263 265 267 270 273 273 273 277 281 282 283 285 289 292 295 297 300 302 303 303 303 304 305 306 307 310 313 316 318 319 320 321 321 322 322 322 321 320 320 320 319 319 319 319 319 320 321 322 323 324 325 325 326 327 328 329 331 332 333 334 336 338 339 340 341 343 346 347 347 344 342 339 335 330 324 317 309 297 281 264 252
252 255 257 258 259 260 262 265 268 267 269 273 278 279 281 284 288 292 294 296 298 300 301 301 301 302 303 305 308 310 313 315 317 318 319 319 320 320 321 320 319 318 318 318 317 317 317 318 318 319 319 320 321 322 323 323 324 325 327 328 330 330 331 333 335 336 337 338 340 341 342 343 344 344 343 340 336 331 325 318 311 303 291 277 263
247 250 255 258 260 260 261 263 264 265 267 271 274 277 280 284 287 290 293 295 297 299 299 299 300 301 303 306 308 310 313 314 316 317 317 318 319 319 319 318 316 315 315 316 315 315 315 315 316 316 317 318 319 319 320 321 322 323 325 326 327 329 330 332 333 335 336 336 337 338 338 339 340 341 341 340 337 333 327 321 314 306 297 288 276
249 250 254 257 258 259 260 260 261 263 265 268 272 276 280 284 287 290 292 294 295 296 297 298 299 301 304 306 308 310 312 314 315 315 316 316 317 318 317 315 313 312 313 314 314 314 314 314 315 315 315 316 316 317 318 319 320 321 323 324 325 327 329 330 331 332 333 333 334 334 335 336 336 337 337 337 336 333 329 323 316 309 300 292 284
253 254 256 257 259 260 261 262 262 264 267 270 274 278 281 284 286 288 290 292 294 295 296 297 299 302 304 306 308 309 311 312 313 313 314 315 316 316 315 313 312 311 312 312 313 313 313 313 314 314 314 314 315 315 316 317 318 319 320 322 324 325 326 328 329 329 329 330 330 331 331 331 332 332 333 333 332 331 329 325 319 313 305 297 288
257 258 259 261 262 263 264 265 266 267 270 273 276 279 281 283 285 287 289 291 292 293 295 297 300 302 304 305 307 309 310 311 311 312 313 314 315 315 313 311 310 310 310 311 312 312 312 312 312 312 313 313 313 314 314 315 317 318 319 320 322 323 324 325 325 326 326 325 326 326 326 326 327 327 328 328 328 328 326 324 320 316 310 304 295
259 260 261 262 263 264 265 266 267 269 271 273 275 278 280 282 284 286 288 289 291 293 295 297 299 301 303 304 306 307 308 309 310 311 312 313 313 312 309 307 307 308 308 309 310 310 311 311 310 310 309 310 311 312 313 314 315 316 317 319 320 321 321 321 321 322 322 321 321 321 321 321 322 322 322 323 323 323 322 321 319 316 312 308 303
258 259 260 261 262 263 264 265 267 269 270 273 275 277 279 282 284 285 287 288 290 293 295 296 298 300 302 303 304 305 306 307 307 308 309 310 310 307 304 304 304 305 306 308 309 309 310 310 311 310 310 309 309 309 311 312 313 314 315 316 317 318 318 318 318 318 318 318 317 317 317 317 318 318 318 318 318 318 317 317 315 314 311 308 305
258 259 260 261 262 264 265 267 268 270 272 274 276 278 280 282 284 285 287 288 290 292 294 295 297 299 301 302 303 304 304 305 306 307 308 308 307 305 303 303 304 305 306 308 309 308 308 309 310 311 311 310 310 309 309 310 311 312 313 313 314 314 315 316 316 315 315 315 314 314 314 314 314 315 315 314 314 313 313 312 311 310 308 306 304
Height
10693 10693 10693 10692 10692 10691 10690 10689 10688 10687 10687 10686 10685 10684 10682 10680 10679 10677 10675 10673 10671 10668 10664 10661 10658 10655 10651 10647 10644 10640 10637 10633 10630 10626 10623 10619 10615 10611 10607 10602 10598 10595 10591 10587 10581 10576 10573 10569 10565 10560 10556 10551 10547 10543 10539 10535 10532 10529 10526 10523 10520 10519 10518 10517 10517 10514 10509 10507 10506 10504 10502 10501 10500 10502 10504 10506 10507 10510 10514 10517 10520 10522 10525 10527 10530
10687 10687 10687 10687 10686 10685 10684 10683 10681 10681 10680 10679 10678 10676 10674 10673 10671 10670 10667 10665 10662 10659 10656 10653 10650 10647 10644 10640 10637 10634 10630 10627 10623 10619 10615 10612 10608 10603 10599 10595 10591 10587 10583 10579 10573 10567 10563 10559 10555 10551 10546 10542 10537 10533 10529 10526 10522 10519 10515 10513 10510 10508 10507 10506 10505 10504 10500 10496 10494 10493 10492 10491 10490 10490 10492 10494 10494 10496 10500 10504 10507 10510 10512 10515 10519
10682 10682 10681 10681 10680 10679 10678 10676 10675 10674 10673 10672 10671 10669 10667 10665 10664 10662 10660 10657 10654 10652 10649 10646 10643 10640 10637 10634 10631 10627 10624 10620 10616 10612 10608 10604 10600 10596 10592 10587 10583 10578 10574 10569 10564 10558 10553 10549 10545 10540 10536 10531 10526 10522 10519 10515 10512 10508 10505 10502 10499 10497 10495 10494 10493 10492 10490 10486 10483 10482 10480 10479 10479 10479 10480 10481 10483 10483 10486 10489 10493 10497 10499 10503 10506
10677 10676 10675 10675 10674 10673 10672 10671 10670 10668 10667 10666 10665 10663 10661 10659 10657 10656 10653 10651 10648 10645 10643 10640 10637 10634 10631 10628 10624 10620 10617 10613 10609 10605 10601 10597 10592 10588 10584 10579 10574 10570 10566 10561 10555 10550 10544 10539 10534 10530 10526 10521 10516 10512 10508 10505 10502 10499 10495 10491 10489 10486 10484 10482 10481 10479 10478 10475 10472 10471 10469 10468 10467 10467 10468 10469 10470 10471 10473 10475 10479 10483 10486 10489 10493
10671 10670 10669 10669 10668 10668 10666 10665 10664 10662 10661 10659 10658 10656 10654 10653 10651 10649 10647 10644 10641 10639 10637 10634 10631 10628 10625 10621 10617 10614 10610 10606 10602 10598 10593 10589 10585 10580 10575 10570 10566 10561 10557 10552 10547 10541 10535 10529 10524 10519 10516 10511 10507 10502 10498 10495 10492 10488 10485 10481 10478 10476 10473 10471 10469 10467 10465 10464 10461 10458 10457 10456 10455 10454 10455 10457 10457 10458 10460 10462 10465 10468 10472 10476 10480
10665 10664 10664 10663 10663 10662 10660 10659 10658 10656 10654 10653 10651 10650 10648 10646 10645 10643 10641 10638 10635 10633 10630 10627 10624 10621 10618 10614 10610 10606 10602 10598 10594 10590 10586 10582 10577 10572 10567 10562 10557 10553 10548 10543 10538 10532 10526 10520 10514 10510 10506 10502 10498 10493 10488 10484 10481 10477 10474 10470 10467 10464 10462 10459 10457 10455 10453 10451 10449 10447 10445 10444 10443 10441 10442 10444 10445 10445 10447 10449 10451 10454 10458 10462 10466
10659 10658 10658 10658 10657 10656 10654 10653 10652 10650 10648 10646 10644 10643 10642 10640 10639 10637 10634 10631 10629 10626 10623 10620 10617 10613 10610 10607 10603 10599 10595 10591 10587 10583 10579 10574 10569 10565 10559 10554 10549 10543 10539 10534 10529 10524 10518 10512 10506 10500 10496 10493 10489 10484 10479 10474 10469 10465 10462 10459 10455 10452 10449 10447 10444 10442 10440 10438 10436 10434 10433 10431 10430 10430 10429 10430 10433 10433 10434 10436 10438 10440 10443 10448 10451
10653 10651 10652 10652 10651 10649 10648 10646 10645 10643 10641 10639 10638 10636 10635 10634 10632 10630 10628 10625 10622 10620 10616 10613 10610 10606 10603 10599 10596 10592 10588 10584 10580 10576 10571 10567 10562 10557 10552 10546 10541 10535 10530 10525 10519 10514 10508 10503 10497 10491 10486 10482 10478 10474 10469 10464 10459 10454 10449 10446 10443 10440 10437 10434 10432 10429 10427 10425 10422 10421 10420 10418 10417 10417 10417 10417 10419 10421 10421 10423 10425 10425 10428 10433 10437
10646 10645 10645 10645 10644 10642 10641 10640 10638 10636 10634 10632 10631 10630 10629 10628 10626 10624 10621 10618 10616 10613 10610 10606 10603 10599 10596 10592 10589 10585 10581 10577 10573 10569 10564 10560 10555 10550 10544 10538 10533 10526 10521 10515 10510 10503 10498 10493 10487 10482 10476 10471 10467 10462 10458 10453 10449 10444 10439 10434 10430 10427 10424 10421 10419 10417 10414 10411 10409 10407 10406 10404 10403 10403 10403 10403 10405 10406 10407 10409 10412 10412 10413 10417 10422
10640 10639 10639 10638 10637 10636 10635 10634 10632 10630 10628 10626 10625 10624 10623 10622 10620 10617 10614 10611 10609 10606 10603 10600 10596 10593 10589 10586 10582 10578 10574 10570 10566 10562 10558 10553 10548 10542 10536 10530 10524 10517 10511 10505 10501 10494 10489 10484 10479 10473 10468 10462 10456 10451 10446 10441 10436 10432 10428 10423 10419 10416 10413 10410 10407 10404 10402 10399 10396 10394 10393 10391 10389 10389 10389 10389 10389 10391 10392 10394 10397 10399 10400 10403 10407
10634 10634 10633 10632 10630 10629 10629 10627 10626 10623 10622 10620 10619 10617 10616 10615 10613 10610 10607 10605 10602 10599 10596 10593 10590 10586 10583 10579 10575 10571 10567 10563 10559 10555 10550 10545 10540 10534 10528 10522 10515 10509 10503 10496 10491 10486 10481 10476 10471 10465 10460 10453 10447 10441 10435 10429 10424 10419 10415 10410 10407 10404 10402 10399 10396 10393 10390 10387 10383 10382 10381 10379 10376 10375 10375 10375 10374 10375 10377 10379 10382 10384 10386 10390 10393
10629 10628 10627 10626 10624 10624 10623 10621 10619 10617 10616 10614 10612 10611 10610 10608 10606 10604 10601 10598 10596 10593 10590 10587 10583 10580 10576 10572 10569 10565 10561 10557 10553 10548 10543 10538 10532 10526 10520 10514 10508 10502 10495 10489 10483 10478 10472 10467 10462 10457 10451 10445 10438 10431 10425 10418 10413 10408 10403 10398 10394 10391 10389 10387 10385 10382 10379 10376 10372 10371 10370 10369 10365 10362 10361 10361 10359 10359 10361 10364 10367 10370 10372 10376 10381
10623 10621 10620 10619 10618 10618 10617 10615 10613 10611 10610 10608 10606 10604 10603 10601 10599 10597 10594 10592 10589 10587 10584 10580 10576 10573 10570 10566 10563 10559 10555 10551 10546 10541 10536 10531 10525 10519 10513 10507 10500 10494 10488 10481 10475 10470 10464 10458 10453 10448 10442 10436 10429 10422 10416 10409 10403 10397 10393 10388 10383 10380 10376 10374 10372 10370 10368 10366 10363 10361 10359 10358 10354 10350 10348 10347 10347 10346 10347 10350 10353 10357 10360 10362 10367
10616 10615 10614 10613 10612 10611 10610 10608 10607 10605 10603 10601 10600 10598 10597 10595 10593 10590 10588 10586 10583 10580 10577 10574 10570 10567 10563 10560 10556 10552 10548 10544 10540 10535 10530 10524 10518 10512 10506 10499 10493 10487 10480 10474 10469 10463 10457 10451 10445 10440 10434 10428 10421 10414 10408 10401 10395 10388 10383 10378 10374 10370 10367 10363 10360 10358 10356 10355 10353 10350 10348 10347 10344 10339 10336 10335 10336 10335 10335 10337 10339 10344 10349 10351 10354
10609 10608 10607 10606 10605 10605 10603 10602 10601 10599 10597 10595 10594 10592 10590 10588 10586 10584 10582 10580 10577 10574 10571 10567 10564 10561 10557 10554 10550 10546 10542 10538 10533 10528 10523 10518 10512 10505 10499 10492 10486 10480 10473 10467 10462 10456 10450 10444 10438 10432 10426 10420 10414 10407 10401 10394 10387 10381 10375 10370 10365 10361 10357 10353 10350 10349 10346 10343 10342 10339 10337 10335 10333 10330 10327 10326 10326 10326 10325 10325 10326 10329 10336 10339 10341
10603 10602 10600 10599 10599 10598 10597 10596 10594 10592 10591 10589 10588 10586 10584 10582 10580 10578 10576 10573 10570 10567 10564 10561 10558 10555 10551 10548 10544 10540 10536 10531 10527 10522 10516 10511 10505 10498 10492 10486 10479 10473 10467 10461 10454 10448 10443 10437 10431 10425 10418 10412 10406 10399 10393 10387 10381 10374 10367 10362 10358 10353 10348 10343 10339 10339 10336 10333 10331 10329 10327 10324 10322 10320 10318 10317 10317 10317 10316 10315 10314 10316 10321 10324 10326
10596 10595 10593 10593 10593 10592 10591 10590 10588 10587 10585 10583 10582 10580 10578 10576 10574 10571 10569 10566 10564 10561 10558 10554 10552 10548 10545 10541 10537 10533 10529 10524 10520 10515 10510 10504 10498 10491 10485 10479 10472 10466 10460 10454 10447 10441 10435 10429 10423 10417 10410 10404 10398 10392 10386 10380 10374 10368 10361 10356 10351 10346 10340 10334 10329 10328 10326 10324 10322 10319 10317 10315 10312 10310 10309 10308 10308 10308 10306 10304 10303 10306 10309 10310 10312
10589 10588 10587 10587 10586 10586 10585 10584 10582 10581 10579 10577 10576 10574 10571 10569 10567 10565 10562 10560 10557 10554 10551 10548 10545 10542 10539 10535 10531 10527 10522 10518 10513 10508 10502 10497 10490 10484 10478 10471 10465 10459 10453 10447 10441 10434 10427 10421 10415 10410 10403 10397 10391 10385 10379 10374 10368 10362 10356 10351 10346 10341 10336 10330 10324 10320 10317 10314 10313 10311 10308 10306 10304 10302 10301 10300 10300 10299 10296 10294 10294 10297 10299 10299 10301
10583 10582 10581 10581 10580 10579 10578 10577 10576 10575 10573 10571 10569 10567 10565 10563 10561 10558 10556 10553 10551 10548 10545 10542 10539 10536 10532 10528 10524 10520 10515 10511 10506 10500 10495 10489 10483 10477 10471 10465 10459 10453 10446 10440 10433 10427 10420 10413 10408 10402 10396 10390 10384 10378 10373 10368 10363 10357 10352 10347 10342 10337 10331 10326 10321 10316 10311 10307 10305 10303 10300 10297 10295 10294 10293 10292 10292 10291 10289 10287 10286 10288 10290 10290 10292
10577 10576 10575 10575 10574 10573 10572 10571 10570 10569 10567 10565 10563 10561 10559 10557 10554 10552 10550 10547 10544 10541 10538 10535 10533 10529 10526 10522 10518 10513 10509 10504 10499 10494 10488 10482 10476 10470 10464 10458 10452 10445 10439 10432 10426 10419 10413 10406 10400 10395 10389 10384 10378 10372 10367 10363 10358 10352 10347 10343 10338 10333 10327 10321 10316 10312 10308 10303 10300 10297 10294 10290 10287 10286 10286 10285 10284 10283 10282 10281 10280 10280 10280 10280 10283
10570 10569 10569 10568 10568 10567 10566 10565 10564 10562 10560 10558 10556 10554 10552 10550 10548 10546 10543 10541 10538 10535 10532 10529 10526 10523 10519 10515 10511 10507 10502 10497 10492 10487 10481 10475 10469 10463 10456 10450 10444 10438 10432 10425 10419 10413 10406 10399 10393 10388 10383 10378 10372 10366 10362 10357 10352 10347 10342 10337 10333 10328 10323 10317 10312 10307 10303 10299 10295 10292 10288 10285 10282 10280 10278 10277 10277 10276 10274 10273 10273 10272 10272 10271 10274
10564 10563 10563 10562 10561 10561 10559 10558 10557 10555 10553 10552 10550 10548 10546 10544 10542 10540 10537 10534 10531 10528 10525 10523 10520 10516 10513 10508 10504 10500 10495 10490 10486 10481 10475 10469 10463 10456 10450 10444 10438 10432 10426 10419 10413 10406 10400 10394 10387 10382 10377 10372 10367 10361 10356 10352 10347 10342 10336 10332 10327 10323 10317 10312 10306 10302 10298 10295 10291 10288 10284 10280 10278 10275 10273 10271 10270 10269 10268 10267 10267 10266 10265 10265 10266
10557 10557 10556 10555 10555 10554 10553 10552 10550 10548 10547 10546 10544 10542 10540 10538 10536 10533 10531 10528 10525 10522 10519 10516 10513 10510 10506 10502 10498 10493 10489 10484 10480 10474 10469 10463 10457 10451 10445 10439 10433 10426 10420 10414 10407 10401 10394 10388 10382 10376 10371 10366 10362 10357 10352 10348 10343 10338 10332 10327 10323 10318 10312 10306 10301 10297 10293 10290 10287 10284 10280 10277 10274 10271 10268 10266 10264 10263 10262 10262 10261 10260 10260 10260 10260
10551 10550 10549 10548 10548 10547 10546 10545 10543 10542 10541 10539 10537 10535 10533 10531 10529 10527 10524 10521 10519 10516 10513 10510 10506 10503 10500 10496 10492 10487 10483 10478 10474 10468 10463 10457 10451 10446 10440 10434 10428 10421 10415 10409 10402 10396 10390 10383 10377 10371 10366 10362 10358 10353 10348 10344 10340 10335 10329 10324 10319 10314 10309 10303 10297 10293 10289 10286 10283 10280 10277 10274 10271 10268 10265 10262 10260 10259 10258 10257 10256 10255 10255 10255 10256
10544 10543 10542 10541 10541 10541 10539 10538 10536 10535 10534 10532 10530 10529 10527 10525 10523 10520 10518 10515 10512 10509 10506 10503 10500 10497 10493 10489 10485 10481 10477 10472 10468 10463 10457 10451 10446 10440 10435 10429 10422 10416 10410 10404 10398 10391 10385 10379 10373 10368 10363 10358 10353 10348 10344 10340 10336 10332 10327 10321 10316 10312 10307 10300 10294 10289 10286 10283 10280 10277 10274 10271 10269 10265 10262 10260 10257 10255 10254 10253 10252 10251 10251 10251 10252
10537 10536 10535 10535 10535 10534 10533 10531 10530 10529 10527 10525 10524 10522 10520 10518 10516 10514 10511 10509 10506 10503 10500 10497 10494 10490 10486 10483 10479 10475 10470 10466 10461 10456 10451 10446 10440 10435 10429 10423 10417 10411 10405 10399 10393 10387 10380 10374 10368 10363 10358 10354 10349 10345 10341 10336 10333 10328 10323 10317 10312 10308 10305 10300 10294 10289 10284 10280 10277 10274 10271 10269 10266 10263 10260 10258 10256 10253 10251 10249 10249 10248 10248 10247 10248
10530 10529 10528 10529 10529 10527 10525 10524 10524 10522 10520 10519 10516 10514 10513 10511 10509 10507 10505 10502 10499 10497 10494 10491 10488 10484 10481 10477 10473 10469 10464 10460 10455 10450 10445 10440 10435 10430 10424 10418 10412 10406 10400 10394 10388 10381 10375 10369 10363 10358 10354 10349 10345 10341 10337 10333 10328 10324 10320 10314 10309 10305 10301 10297 10293 10288 10283 10279 10275 10272 10269 10266 10264 10261 10258 10256 10254 10251 10249 10247 10246 10246 10245 10245 10246
10523 10522 10522 10523 10522 10520 10519 10518 10517 10515 10513 10511 10509 10507 10506 10504 10502 10500 10498 10495 10493 10490 10487 10484 10481 10478 10475 10471 10467 10463 10459 10455 10450 10445 10440 10435 10430 10425 10419 10413 10406 10400 10393 10387 10382 10376 10370 10364 10358 10353 10349 10345 10340 10336 10332 10328 10325 10321 10317 10312 10307 10302 10297 10293 10288 10283 10280 10276 10272 10269 10266 10264 10261 10259 10256 10254 10252 10250 10248 10246 10245 10244 10243 10243 10244
10516 10516 10516 10516 10514 10513 10512 10511 10510 10508 10506 10504 10502 10500 10499 10497 10495 10493 10491 10489 10486 10483 10481 10478 10475 10472 10469 10465 10461 10457 10453 10449 10444 10439 10434 10429 10425 10419 10414 10408 10402 10394 10387 10381 10376 10371 10365 10359 10354 10350 10345 10341 10337 10332 10328 10324 10321 10318 10314 10310 10305 10301 10296 10291 10287 10282 10278 10275 10271 10267 10264 10262 10259 10257 10255 10253 10251 10249 10246 10245 10244 10243 10242 10242 10243
10510 10510 10509 10509 10507 10506 10505 10504 10503 10501 10499 10496 10494 10493 10491 10489 10488 10487 10484 10482 10479 10477 10474 10471 10468 10466 10463 10459 10455 10451 10447 10442 10438 10433 10428 10424 10419 10414 10408 10403 10397 10390 10383 10377 10371 10366 10361 10356 10351 10347 10343 10339 10335 10331 10327 10323 10319 10316 10313 10309 10304 10300 10295 10290 10286 10281 10277 10274 10271 10267 10263 10260 10258 10256 10253 10252 10250 10248 10245 10244 10243 10242 10242 10242 10242
10503 10503 10502 10501 10500 10499 10498 10497 10495 10493 10491 10489 10487 10485 10483 10482 10481 10479 10477 10475 10472 10470 10468 10465 10462 10460 10456 10453 10449 10445 10441 10437 10432 10427 10423 10418 10413 10408 10403 10398 10392 10386 10379 10373 10368 10363 10358 10353 10349 10345 10341 10337 10333 10329 10326 10322 10318 10314 10311 10307 10303 10299 10295 10290 10286 10281 10276 10272 10269 10266 10263 10260 10257 10255 10253 10251 10249 10247 10245 10244 10243 10242 10242 10242 10242
10496 10496 10495 10494 10492 10492 10491 10489 10488 10486 10483 10481 10479 10477 10476 10475 10474 10472 10470 10468 10466 10464 10462 10459 10456 10454 10450 10447 10443 10439 10436 10431 10427 10422 10418 10413 10408 10403 10398 10393 10388 10382 10375 10369 10364 10360 10355 10350 10346 10342 10338 10335 10331 10328 10324 10321 10317 10313 10310 10306 10302 10298 10294 10290 10287 10282 10277 10272 10268 10265 10262 10259 10257 10255 10252 10251 10249 10247 10245 10244 10243 10243 10243 10243 10243
10489 10488 10487 10486 10485 10485 10484 10482 10480 10478 10476 10473 10471 10470 10469 10468 10467 10465 10464 10462 10460 10458 10456 10453 10450 10448 10444 10441 10437 10434 10430 10426 10422 10417 10413 10408 10403 10398 10393 10388 10383 10378 10372 10366 10361 10357 10352 10347 10343 10340 10336 10333 10329 10326 10322 10318 10315 10312 10308 10305 10301 10297 10293 10289 10285 10281 10277 10272 10268 10264 10261 10258 10256 10254 10252 10251 10249 10248 10246 10245 10244 10244 10245 10245 10245
10481 10480 10479 10478 10478 10477 10476 10474 10473 10471 10469 10466 10464 10464 10463 10461 10460 10459 10457 10456 10454 10451 10449 10447 10444 10441 10438 10435 10432 10428 10424 10421 10417 10412 10408 10403 10399 10393 10388 10383 10378 10374 10369 10363 10358 10353 10349 10344 10341 10338 10334 10331 10327 10324 10320 10316 10313 10310 10306 10303 10299 10295 10292 10288 10283 10279 10276 10272 10268 10264 10261 10258 10256 10254 10252 10251 10249 10248 10247 10246 10245 10245 10246 10247 10247
10473 10472 10471 10471 10470 10469 10468 10467 10466 10465 10463 10460 10458 10457 10457 10455 10453 10452 10451 10449 10447 10445 10443 10441 10438 10435 10432 10429 10426 10423 10419 10415 10411 10407 10403 10399 10394 10389 10383 10379 10374 10369 10364 10359 10355 10350 10346 10342 10339 10335 10332 10329 10325 10322 10319 10315 10311 10308 10305 10301 10297 10294 10290 10286 10282 10279 10275 10272 10268 10265 10261 10258 10256 10253 10252 10251 10250 10248 10247 10247 10246 10246 10246 10248 10249
10465 10464 10463 10462 10462 10461 10461 10460 10459 10458 10456 10454 10452 10451 10450 10449 10447 10446 10445 10443 10441 10439 10437 10435 10432 10429 10427 10424 10421 10417 10414 10410 10406 10402 10398 10393 10389 10384 10379 10374 10369 10365 10360 10355 10352 10348 10344 10340 10337 10333 10330 10326 10323 10320 10317 10313 10310 10307 10303 10300 10297 10293 10289 10285 10282 10278 10275 10272 10268 10265 10262 10259 10256 10254 10252 10251 10250 10249 10248 10247 10247 10247 10247 10248 10249
10457 10456 10454 10454 10455 10455 10454 10452 10451 10450 10448 10447 10446 10445 10444 10442 10441 10440 10438 10437 10435 10433 10431 10429 10426 10424 10421 10418 10415 10412 10409 10405 10401 10397 10393 10388 10383 10379 10374 10369 10364 10360 10356 10352 10348 10345 10341 10338 10334 10330 10327 10324 10321 10318 10315 10311 10308 10305 10301 10298 10296 10293 10289 10285 10282 10278 10274 10271 10268 10265 10262 10259 10256 10254 10252 10251 10250 10249 10248 10248 10247 10247 10247 10248 10249
10448 10447 10446 10446 10447 10447 10446 10445 10444 10442 10441 10440 10440 10438 10437 10436 10435 10433 10432 10431 10429 10427 10425 10423 10420 10418 10416 10413 10409 10406 10403 10400 10396 10392 10387 10383 10379 10374 10370 10365 10361 10357 10353 10349 10344 10341 10337 10334 10331 10328 10325 10322 10319 10316 10313 10309 10306 10303 10299 10296 10293 10290 10288 10284 10281 10277 10273 10270 10267 10264 10262 10259 10256 10254 10252 10251 10249 10249 10248 10248 10248 10247 10248 10248 10249
10440 10439 10438 10439 10439 10440 10439 10438 10437 10436 10435 10434 10433 10432 10431 10430 10429 10427 10426 10424 10423 10421 10419 10417 10415 10412 10410 10407 10404 10401 10398 10395 10391 10387 10382 10378 10374 10370 10367 10363 10358 10353 10348 10344 10340 10336 10333 10331 10329 10326 10323 10320 10317 10314 10311 10308 10304 10301 10298 10295 10291 10288 10285 10282 10279 10276 10273 10269 10266 10264 10261 10259 10257 10254 10252 10251 10249 10248 10248 10248 10248 10247 10247 10248 10248
10432 10432 10431 10431 10432 10432 10432 10430 10430 10429 10428 10428 10427 10426 10424 10423 10422 10421 10420 10419 10417 10415 10413 10411 10410 10408 10406 10403 10400 10397 10393 10390 10386 10382 10378 10373 10369 10364 10360 10357 10352 10348 10344 10340 10337 10333 10330 10328 10325 10323 10320 10317 10315 10312 10309 10306 10303 10299 10296 10293 10290 10287 10284 10281 10278 10275 10273 10269 10266 10263 10261 10259 10257 10254 10252 10250 10249 10248 10247 10247 10247 10247 10247 10247 10247
10425 10425 10424 10424 10425 10425 10424 10423 10422 10422 10421 10421 10420 10419 10418 10417 10416 10415 10414 10413 10411 10409 10407 10405 10403 10401 10400 10398 10396 10392 10389 10385 10381 10377 10372 10368 10363 10358 10354 10350 10347 10344 10340 10337 10334 10331 10328 10325 10322 10320 10318 10315 10312 10309 10306 10304 10301 10297 10294 10291 10289 10286 10283 10280 10277 10274 10271 10269 10266 10263 10261 10258 10256 10254 10252 10250 10249 10247 10247 10246 10246 10246 10246 10246 10246
10418 10418 10418 10418 10419 10419 10419 10418 10416 10415 10415 10415 10414 10413 10412 10411 10410 10409 10408 10407 10406 10404 10402 10400 10398 10395 10392 10391 10389 10386 10382 10378 10374 10370 10366 10362 10358 10353 10349 10346 10343 10340 10337 10333 10330 10328 10325 10322 10320 10317 10314 10312 10310 10307 10304 10301 10298 10295 10292 10289 10286 10284 10281 10278 10275 10272 10270 10267 10265 10262 10260 10258 10255 10253 10252 10250 10248 10247 10246 10245 10245 10245 10245 10245 10245
10411 10411 10410 10411 10412 10413 10413 10412 10411 10410 10409 10409 10407 10407 10406 10405 10404 10403 10402 10401 10400 10398 10397 10395 10393 10390 10387 10385 10382 10380 10376 10373 10369 10365 10361 10357 10354 10350 10346 10342 10339 10336 10334 10330 10327 10324 10322 10319 10317 10314 10311 10308 10306 10303 10301 10298 10295 10293 10290 10287 10284 10282 10279 10276 10274 10271 10268 10266 10263 10260 10258 10257 10255 10253 10251 10249 10248 10246 10245 10244 10243 10243 10243 10244 10244
10403 10402 10402 10402 10404 10405 10406 10406 10406 10405 10404 10402 10401 10400 10399 10398 10398 10397 10396 10395 10394 10393 10391 10390 10388 10385 10382 10379 10377 10374 10371 10368 10365 10361 10357 10353 10350 10346 10342 10338 10334 10332 10330 10327 10324 10320 10318 10316 10313 10310 10308 10305 10303 10300 10298 10295 10293 10290 10287 10285 10283 10280 10277 10274 10272 10269 10267 10264 10261 10259 10256 10255 10253 10251 10250 10248 10247 10245 10244 10243 10242 10241 10241 10241 10241
10394 10394 10394 10395 10396 10398 10398 10399 10399 10399 10398 10396 10394 10394 10393 10392 10392 10391 10390 10389 10388 10387 10385 10384 10382 10379 10376 10373 10370 10367 10365 10362 10359 10356 10352 10349 10345 10341 10337 10333 10330 10327 10326 10324 10321 10317 10314 10312 10310 10308 10305 10302 10300 10297 10295 10292 10290 10287 10285 10282 10280 10278 10275 10272 10269 10267 10265 10263 10260 10258 10255 10253 10251 10249 10248 10246 10245 10243 10242 10241 10241 10240 10239 10239 10238
10387 10387 10387 10388 10389 10390 10391 10391 10391 10391 10391 10389 10388 10388 10387 10387 10386 10385 10384 10383 10382 10381 10379 10377 10375 10373 10371 10368 10364 10361 10358 10355 10352 10349 10346 10343 10339 10336 10332 10328 10325 10321 10319 10318 10317 10314 10310 10308 10306 10304 10302 10299 10297 10294 10292 10289 10287 10284 10282 10280 10277 10275 10273 10270 10267 10265 10263 10261 10259 10256 10254 10252 10250 10247 10246 10244 10243 10241 10240 10239 10238 10238 10237 10236 10236
10380 10380 10380 10381 10382 10383 10383 10384 10384 10384 10383 10382 10382 10381 10381 10380 10379 10379 10378 10377 10376 10374 10373 10370 10368 10366 10364 10361 10358 10355 10353 10350 10347 10344 10341 10337 10334 10330 10326 10323 10320 10316 10312 10311 10310 10309 10307 10304 10301 10298 10296 10295 10293 10291 10289 10286 10284 10281 10279 10277 10275 10272 10270 10268 10265 10263 10260 10258 10256 10254 10252 10250 10248 10246 10244 10242 10241 10239 10238 10237 10236 10235 10234 10234 10233
10374 10375 10375 10375 10376 10377 10377 10377 10377 10377 10376 10376 10375 10375 10374 10374 10373 10372 10372 10371 10369 10368 10366 10363 10361 10359 10357 10354 10352 10349 10346 10343 10340 10337 10334 10331 10327 10324 10320 10318 10315 10312 10308 10305 10304 10303 10302 10301 10298 10295 10292 10289 10287 10286 10284 10283 10281 10278 10276 10273 10271 10269 10267 10265 10263 10261 10258 10256 10254 10252 10250 10248 10246 10244 10242 10240 10238 10237 10235 10234 10233 10232 10231 10230 10229
10368 10369 10369 10370 10370 10371 10370 10371 10371 10370 10370 10369 10369 10368 10368 10367 10366 10366 10365 10364 10363 10361 10359 10356 10354 10352 10349 10347 10345 10342 10340 10337 10334 10331 10328 10325 10322 10319 10315 10313 10311 10308 10305 10302 10299 10296 10295 10294 10294 10292 10290 10287 10284 10281 10280 10278 10277 10275 10272 10270 10267 10265 10263 10261 10259 10257 10255 10253 10251 10249 10247 10245 10244 10242 10240 10238 10236 10234 10233 10231 10230 10229 10228 10226 10226
10361 10362 10362 10363 10364 10364 10364 10364 10364 10364 10363 10363 10362 10361 10361 10361 10360 10359 10358 10357 10355 10353 10352 10349 10347 10345 10342 10340 10338 10336 10334 10331 10329 10326 10323 10321 10318 10315 10312 10309 10307 10305 10302 10299 10296 10292 10288 10286 10285 10284 10283 10282 10280 10278 10276 10273 10271 10270 10268 10267 10264 10262 10259 10257 10255 10253 10251 10250 10248 10246 10244 10242 10240 10238 10237 10235 10233 10232 10230 10229 10227 10226 10224 10223 10222
10354 10355 10356 10356 10357 10357 10358 10358 10357 10357 10356 10356 10355 10355 10354 10354 10353 10352 10350 10349 10347 10346 10344 10342 10340 10337 10335 10332 10330 10328 10326 10323 10321 10318 10316 10313 10311 10309 10306 10303 10301 10299 10298 10295 10292 10288 10284 10280 10278 10275 10274 10273 10273 10272 10271 10269 10267 10265 10263 10262 10260 10259 10256 10253 10251 10248 10246 10245 10244 10242 10240 10238 10236 10234 10233 10231 10230 10228 10227 10225 10224 10222 10221 10220 10218